Location: Dentlein
(49.1477°N, 10.4231°E)
Time: 17:32:03
(UTC+00:00)

Meteor 2-5 Rocket - Visible Passes

Search period start: 12 January 2026 00:00
Search period end: 22 January 2026 00:00
Orbit: 832 x 911 km, 81.2° (Epoch: 12 January)

Date Brightness Start Highest point End Pass type
(mag) Time Alt. Az. Time Alt. Az. Time Alt. Az.
12 Jan 6.3 04:44:46 10° NNE 04:48:21 16° ENE 04:51:58 10° E visible
12 Jan 4.0 06:26:49 10° N 06:32:40 84° ENE 06:38:34 10° SSE visible
13 Jan 6.3 04:38:48 10° NNE 04:42:31 17° ENE 04:46:14 10° E visible
13 Jan 3.9 06:20:56 10° NNW 06:26:47 86° ENE 06:32:43 10° SSE visible
14 Jan 6.3 04:32:51 10° NNE 04:36:40 18° ENE 04:40:29 10° E visible
14 Jan 3.9 06:15:03 10° NNW 06:20:55 88° E 06:26:50 10° S visible
15 Jan 6.3 04:26:55 10° NNE 04:30:49 18° ENE 04:34:45 10° E visible
15 Jan 3.9 06:09:10 10° NNW 06:15:03 89° WSW 06:20:58 10° S visible
16 Jan 6.3 04:20:58 10° NNE 04:24:59 19° ENE 04:29:00 10° ESE visible
16 Jan 3.9 06:03:17 10° NNW 06:09:10 87° W 06:15:05 10° S visible
17 Jan 6.2 04:15:02 10° NNE 04:19:07 19° ENE 04:23:16 10° ESE visible
17 Jan 3.8 05:57:24 10° NNW 06:03:17 84° W 06:09:13 10° S visible
18 Jan 6.2 04:09:05 10° NNE 04:13:17 20° ENE 04:17:30 10° ESE visible
18 Jan 3.8 05:51:31 10° NNW 05:57:24 82° W 06:03:20 10° S visible
18 Jan 5.7 19:08:24 10° SSW 19:09:34 17° SSW 19:09:34 17° SSW visible
19 Jan 6.2 04:03:09 10° NNE 04:07:26 20° ENE 04:11:45 10° ESE visible
19 Jan 3.8 05:45:39 10° NNW 05:51:32 79° W 05:57:27 10° S visible
19 Jan 5.5 17:22:03 10° ESE 17:22:52 13° ESE 17:22:52 13° ESE visible
19 Jan 4.9 19:02:31 10° SSW 19:05:27 33° SSW 19:05:27 33° SSW visible
20 Jan 6.1 03:57:13 10° NNE 04:01:35 21° ENE 04:05:58 10° ESE visible
20 Jan 3.8 05:39:46 10° NNW 05:45:39 77° W 05:51:35 10° S visible
20 Jan 5.1 17:16:01 10° ESE 17:18:55 17° E 17:18:55 17° E visible
20 Jan 3.9 18:56:38 10° SSW 19:01:29 66° SW 19:01:29 66° SW visible
20 Jan 6.5 20:43:34 10° W 20:44:05 11° W 20:44:05 11° W visible
21 Jan 6.1 03:51:17 10° NNE 03:55:45 22° ENE 04:00:13 10° ESE visible
21 Jan 3.8 05:33:53 10° NNW 05:39:47 75° W 05:45:41 10° S visible
21 Jan 5.0 17:10:00 10° SE 17:13:41 18° E 17:15:10 17° ENE visible
21 Jan 3.8 18:50:45 10° SSW 18:56:21 75° WNW 18:57:46 52° N visible
21 Jan 6.4 20:37:50 10° W 20:40:22 14° WNW 20:40:22 14° WNW visible
